Regional Weather Roundup
Issued by NWS

Home | Current Version | Previous Version | Text Only | Print | Product List | Glossary Off
Versions: 1 2 3 4 5 6 7 8 9 10 11 12 13 14 15 16 17 18 19 20 21 22 23 24 25 26 27 28 29 30 31 32 33 34 35 36 37 38 39 40 41 42 43 44 45 46 47 48 49 50

302
ASUS43 KDMX 270408
RWRIA

WEATHER ROUNDUP FOR IOWA
NATIONAL WEATHER SERVICE DES MOINES IA
1100 PM CDT FRI AUG 26 2016

NOTE: "FAIR" INDICATES FEW OR NO CLOUDS BELOW 12,000 FEET WITH NO
SIGNIFICANT WEATHER AND/OR OBSTRUCTIONS TO VISIBILITY.

* - THESE STATIONS ARE NOT NWS STATIONS...THUS NOT UNDER NWS
QUALITY CONTROL.  THEY ALSO DO NOT REPORT WEATHER SUCH
AS PRECIPITATION OR FOG.

IAZ001>003-012>014-020>022-031>034-043>046-270500-
   NORTHWEST IOWA

CITY           SKY/WX    TMP DP  RH WIND       PRES   REMARKS
CARROLL *      CLOUDY    63  61  94 VRB3      30.08F
CHEROKEE *     CLOUDY    64  61  90 E3        30.10S
DENISON *      CLOUDY    63  61  94 E9        30.06S
LE MARS *      CLOUDY    64  61  88 SE5       30.09S
ORANGE CITY *  CLOUDY    64  63  94 SE7       30.10R
SHELDON *      CLOUDY    63  63 100 SE6       30.09S
SIOUX CITY     CLOUDY    65  60  84 E7        30.07S
SPENCER        CLOUDY    64  59  83 SE10      30.10F
STORM LAKE *   CLOUDY    63  61  94 E9        30.09F
$$

IAZ055>058-069>071-079>083-090>094-270500-
   SOUTHWEST IOWA

CITY           SKY/WX    TMP DP  RH WIND       PRES   REMARKS
ATLANTIC *     CLOUDY    66  64  94 VRB3      30.06F
AUDUBON *      HVY RAIN  63  61  94 E7        30.08F
CLARINDA *       N/A     68  68 100 MISG      30.05F
COUNCIL BLFS * CLOUDY    64  64 100 E7        30.06F
CRESTON *      CLOUDY    66  66 100 NE9       30.07F
HARLAN  *      CLOUDY    64  64 100 VRB6      30.10F
LAMONI         CLOUDY    69  69 100 NE8       30.03F
RED OAK *      CLOUDY    68  66  94 CALM      30.06F
SHENANDOAH *   CLOUDY    66 N/A N/A N3        30.06S
$$

IAZ047>049-059>061-072>074-084-270500-
   CENTRAL IOWA

CITY           SKY/WX    TMP DP  RH WIND       PRES   REMARKS
AMES           CLOUDY    61  61 100 NE9       30.09F
ANKENY *         N/A    N/A N/A N/A MISG        N/A
BOONE *        CLOUDY    61  61 100 E12       30.08F
CHARITON *     DRIZZLE   68  66  94 MISG      30.05F
DES MOINES     LGT RAIN  66  63  90 NE12      30.06F
GRINNELL*      RAIN      64  62  92 NE6       30.09F
KNOXVILLE *    LGT RAIN  68  66  94 NE6       30.05S
MARSHALLTOWN   LGT RAIN  60  59  96 NE8       30.10S
NEWTON *       CLOUDY    64  64 100 NE9       30.08S
PELLA *        RAIN      66  65  95 N3        30.07F
PERRY *        LGT RAIN  63  63  98 E8        30.08F
$$

IAZ004>006-015-016-023>025-035-036-270500-
   NORTH CENTRAL IOWA

CITY           SKY/WX    TMP DP  RH WIND       PRES   REMARKS
ALGONA *       CLOUDY    64  61  88 E8        30.11F
ESTHERVILLE    CLOUDY    61  61 100 E5        30.11S
FORT DODGE *   CLOUDY    61  55  82 E7        30.11F
MASON CITY     LGT RAIN  63  61  93 SE7       30.13F
FOREST CITY *    N/A    N/A N/A N/A MISG        N/A
WEBSTER CITY * CLOUDY    61  59  94 E6G13     30.09S
IOWA FALLS *   RAIN      60  57  91 E8        30.13F
$$

IAZ007>011-017>019-026>030-037>042-050>054-066-270500-
   NORTHEAST IOWA

CITY           SKY/WX    TMP DP  RH WIND       PRES   REMARKS
CEDAR RAPIDS   CLOUDY    67  63  87 E10       30.06F
CHARLES CITY * CLOUDY    63  63 100 SE6       30.15R
CLINTON *      CLOUDY    69  65  86 E7        30.09S
DECORAH *      LGT RAIN  63  63 100 CALM      30.13S
DUBUQUE          N/A     66  61  84 NE9       30.10F
MONTICELLO *   CLOUDY    66  63  88 VRB3      30.08F
OELWEIN *      LGT RAIN  61  59  94 N8        30.15R
WATERLOO       RAIN      61  58  90 NE10      30.11F
$$

IAZ064-065-067-068-078-270500-
   EAST CENTRAL IOWA

CITY           SKY/WX    TMP DP  RH WIND       PRES   REMARKS
DAVENPORT      CLOUDY    70  64  81 E9        30.08S
IOWA CITY      CLOUDY    70  63  78 NE9       30.07F
MT. PLEASANT * CLOUDY    73  72  97 E5        30.05S
MUSCATINE *    CLOUDY    72  66  83 CALM      30.06S
$$

IAZ062-063-075>077-085>089-095>099-270500-
   SOUTHEAST IOWA

CITY           SKY/WX    TMP DP  RH WIND       PRES   REMARKS
BURLINGTON     CLOUDY    72  71  97 NE7       30.05S
FAIRFIELD *    CLOUDY    70  64  83 E7        30.04F
FORT MADISON * CLOUDY    72  70  94 CALM      30.06R
KEOKUK *       CLOUDY    73  70  88 CALM      30.04S
OSKALOOSA *    CLOUDY    67  66  94 NE6       30.06F
CENTERVILLE *  LGT RAIN  70  68  94 E5        30.06F
OTTUMWA        CLOUDY    70  65  84 N6        30.05S
WASHINGTON *   CLOUDY    68  66  94 NE5       30.06F
$$

ABBREVIATIONS USED IN REMARKS
   TC - TEMPERATURES IN CELSIUS
  WCI - WIND CHILL INDEX
   HX - HEAT INDEX
  VSB - VISIBILITY
$$





USA.gov is the U.S. government's official web portal to all federal, state and local government web resources and services.